Time,TemperatureF,DewpointF,PressureIn,WindDirection,WindDirectionDegrees,WindSpeedMPH,WindSpeedGustMPH,Humidity,HourlyPrecipIn,Conditions,Clouds,dailyrainin,SoftwareType,DateUTC
2013-01-03 00:02:00,44.0,8.0,-100.00,ENE,74,2.0,5.0,22,-99.99,,,-99.99,,2013-01-03 08:02:00,
2013-01-03 00:11:00,43.0,8.0,-100.00,ESE,113,3.0,7.0,23,-99.99,,,-99.99,,2013-01-03 08:11:00,
2013-01-03 00:22:00,43.0,8.0,-100.00,East,83,3.0,6.0,23,-99.99,,,-99.99,,2013-01-03 08:22:00,
2013-01-03 00:32:00,44.0,7.0,-100.00,ENE,71,4.0,6.0,21,-99.99,,,-99.99,,2013-01-03 08:32:00,
2013-01-03 00:42:00,44.0,8.0,-100.00,SSE,150,4.0,10.0,22,-99.99,,,-99.99,,2013-01-03 08:42:00,
2013-01-03 00:52:00,43.0,7.0,-100.00,SE,142,6.0,10.0,22,-99.99,,,-99.99,,2013-01-03 08:52:00,
2013-01-03 01:02:00,43.0,7.0,-100.00,SSE,167,4.0,8.0,22,-99.99,,,-99.99,,2013-01-03 09:02:00,
2013-01-03 01:11:00,42.0,8.0,-100.00,SSE,149,3.0,7.0,24,-99.99,,,-99.99,,2013-01-03 09:11:00,
2013-01-03 01:22:00,42.0,9.0,-100.00,SE,125,4.0,8.0,25,-99.99,,,-99.99,,2013-01-03 09:22:00,
2013-01-03 01:33:00,43.0,8.0,-100.00,SE,127,4.0,9.0,23,-99.99,,,-99.99,,2013-01-03 09:33:00,
2013-01-03 01:42:00,43.0,8.0,-100.00,SE,127,4.0,9.0,23,-99.99,,,-99.99,,2013-01-03 09:42:00,
2013-01-03 01:52:00,45.0,6.0,-100.00,SSE,167,9.0,14.0,20,-99.99,,,-99.99,,2013-01-03 09:52:00,
2013-01-03 02:02:00,45.0,6.0,-100.00,South,176,6.0,10.0,20,-99.99,,,-99.99,,2013-01-03 10:02:00,
2013-01-03 02:12:00,44.0,7.0,-100.00,ENE,68,2.0,7.0,21,-99.99,,,-99.99,,2013-01-03 10:12:00,
2013-01-03 02:22:00,43.0,7.0,-100.00,East,101,5.0,10.0,22,-99.99,,,-99.99,,2013-01-03 10:22:00,
2013-01-03 02:32:00,44.0,6.0,-100.00,ESE,109,4.0,7.0,20,-99.99,,,-99.99,,2013-01-03 10:32:00,
2013-01-03 02:42:00,43.0,7.0,-100.00,ESE,103,4.0,7.0,22,-99.99,,,-99.99,,2013-01-03 10:42:00,
2013-01-03 02:52:00,44.0,6.0,-100.00,SE,132,6.0,10.0,20,-99.99,,,-99.99,,2013-01-03 10:52:00,
2013-01-03 03:02:00,46.0,4.0,-100.00,WNW,292,6.0,14.0,17,-99.99,,,-99.99,,2013-01-03 11:02:00,
2013-01-03 03:11:00,49.0,0.0,-100.00,NNE,19,14.0,32.0,13,-99.99,,,-99.99,,2013-01-03 11:11:00,
2013-01-03 03:22:00,49.0,2.0,-100.00,North,356,11.0,25.0,14,-99.99,,,-99.99,,2013-01-03 11:22:00,
2013-01-03 03:32:00,49.0,0.0,-100.00,North,11,13.0,27.0,13,-99.99,,,-99.99,,2013-01-03 11:32:00,
2013-01-03 03:42:00,50.0,-1.0,-100.00,NNE,13,15.0,31.0,12,-99.99,,,-99.99,,2013-01-03 11:42:00,
2013-01-03 03:52:00,49.0,2.0,-100.00,North,357,8.0,24.0,14,-99.99,,,-99.99,,2013-01-03 11:52:00,
2013-01-03 04:02:00,49.0,2.0,-100.00,North,357,8.0,24.0,14,-99.99,,,-99.99,,2013-01-03 12:02:00,
2013-01-03 04:12:00,46.0,5.0,-100.00,NE,56,4.0,8.0,18,-99.99,,,-99.99,,2013-01-03 12:12:00,
2013-01-03 04:22:00,46.0,5.0,-100.00,ENE,59,4.0,9.0,18,-99.99,,,-99.99,,2013-01-03 12:22:00,
2013-01-03 04:32:00,45.0,5.0,-100.00,NE,41,3.0,6.0,19,-99.99,,,-99.99,,2013-01-03 12:32:00,
2013-01-03 04:42:00,44.0,4.0,-100.00,NE,48,4.0,8.0,19,-99.99,,,-99.99,,2013-01-03 12:42:00,
2013-01-03 04:52:00,43.0,5.0,-100.00,NE,44,3.0,6.0,20,-99.99,,,-99.99,,2013-01-03 12:52:00,
2013-01-03 05:02:00,43.0,5.0,-100.00,NE,44,3.0,6.0,20,-99.99,,,-99.99,,2013-01-03 13:02:00,
2013-01-03 05:12:00,44.0,4.0,-100.00,NE,44,2.0,6.0,19,-99.99,,,-99.99,,2013-01-03 13:12:00,
2013-01-03 05:22:00,46.0,2.0,-100.00,North,359,3.0,7.0,16,-99.99,,,-99.99,,2013-01-03 13:22:00,
2013-01-03 05:32:00,48.0,1.0,-100.00,South,186,4.0,9.0,14,-99.99,,,-99.99,,2013-01-03 13:32:00,
2013-01-03 05:42:00,48.0,1.0,-100.00,NE,44,5.0,12.0,14,-99.99,,,-99.99,,2013-01-03 13:42:00,
2013-01-03 05:52:00,49.0,0.0,-100.00,NW,321,7.0,18.0,13,-99.99,,,-99.99,,2013-01-03 13:52:00,
2013-01-03 06:02:00,48.0,1.0,-100.00,NNW,347,8.0,20.0,14,-99.99,,,-99.99,,2013-01-03 14:02:00,
2013-01-03 06:12:00,48.0,1.0,-100.00,North,355,10.0,20.0,14,-99.99,,,-99.99,,2013-01-03 14:12:00,
2013-01-03 06:22:00,49.0,2.0,-100.00,NNW,347,8.0,24.0,14,-99.99,,,-99.99,,2013-01-03 14:22:00,
2013-01-03 06:32:00,48.0,3.0,-100.00,West,263,4.0,11.0,15,-99.99,,,-99.99,,2013-01-03 14:32:00,
2013-01-03 06:42:00,48.0,3.0,-100.00,West,263,4.0,11.0,15,-99.99,,,-99.99,,2013-01-03 14:42:00,
2013-01-03 06:53:00,45.0,4.0,-100.00,SSE,166,5.0,10.0,18,-99.99,,,-99.99,,2013-01-03 14:53:00,
2013-01-03 07:02:00,43.0,6.0,-100.00,ESE,123,6.0,9.0,21,-99.99,,,-99.99,,2013-01-03 15:02:00,
2013-01-03 07:12:00,43.0,5.0,-100.00,ESE,104,7.0,13.0,20,-99.99,,,-99.99,,2013-01-03 15:12:00,
2013-01-03 07:22:00,47.0,2.0,-100.00,East,98,11.0,24.0,15,-99.99,,,-99.99,,2013-01-03 15:22:00,
2013-01-03 07:33:00,50.0,1.0,-100.00,ENE,72,17.0,30.0,13,-99.99,,,-99.99,,2013-01-03 15:33:00,
2013-01-03 07:42:00,50.0,1.0,-100.00,ENE,72,17.0,30.0,13,-99.99,,,-99.99,,2013-01-03 15:42:00,
2013-01-03 07:53:00,51.0,2.0,-100.00,ENE,64,14.0,30.0,13,-99.99,,,-99.99,,2013-01-03 15:53:00,
2013-01-03 08:02:00,50.0,1.0,-100.00,ENE,75,12.0,28.0,13,-99.99,,,-99.99,,2013-01-03 16:02:00,
2013-01-03 08:12:00,50.0,1.0,-100.00,ENE,67,14.0,25.0,13,-99.99,,,-99.99,,2013-01-03 16:12:00,
2013-01-03 08:22:00,51.0,0.0,-100.00,ENE,65,16.0,31.0,12,-99.99,,,-99.99,,2013-01-03 16:22:00,
2013-01-03 08:33:00,51.0,2.0,-100.00,East,84,14.0,29.0,13,-99.99,,,-99.99,,2013-01-03 16:33:00,
2013-01-03 08:42:00,51.0,2.0,-100.00,East,84,14.0,29.0,13,-99.99,,,-99.99,,2013-01-03 16:42:00,
2013-01-03 08:52:00,51.0,2.0,-100.00,ENE,75,18.0,31.0,13,-99.99,,,-99.99,,2013-01-03 16:52:00,
2013-01-03 09:02:00,51.0,2.0,-100.00,ENE,66,18.0,31.0,13,-99.99,,,-99.99,,2013-01-03 17:02:00,
2013-01-03 09:12:00,52.0,3.0,-100.00,ENE,63,17.0,29.0,13,-99.99,,,-99.99,,2013-01-03 17:12:00,
2013-01-03 09:22:00,51.0,2.0,-100.00,ENE,74,15.0,30.0,13,-99.99,,,-99.99,,2013-01-03 17:22:00,
2013-01-03 09:32:00,52.0,3.0,-100.00,ENE,71,16.0,33.0,13,-99.99,,,-99.99,,2013-01-03 17:32:00,
2013-01-03 09:42:00,52.0,3.0,-100.00,ENE,73,15.0,33.0,13,-99.99,,,-99.99,,2013-01-03 17:42:00,
2013-01-03 09:52:00,52.0,3.0,-100.00,ENE,73,17.0,34.0,13,-99.99,,,-99.99,,2013-01-03 17:52:00,
2013-01-03 10:02:00,52.0,3.0,-100.00,East,84,11.0,23.0,13,-99.99,,,-99.99,,2013-01-03 18:02:00,
2013-01-03 10:12:00,52.0,3.0,-100.00,ESE,102,11.0,26.0,13,-99.99,,,-99.99,,2013-01-03 18:12:00,
2013-01-03 10:22:00,51.0,5.0,-100.00,SSE,152,12.0,28.0,15,-99.99,,,-99.99,,2013-01-03 18:22:00,
2013-01-03 10:33:00,51.0,5.0,-100.00,SSW,199,4.0,9.0,15,-99.99,,,-99.99,,2013-01-03 18:33:00,
2013-01-03 10:42:00,52.0,6.0,-100.00,SW,235,4.0,10.0,15,-99.99,,,-99.99,,2013-01-03 18:42:00,
2013-01-03 10:53:00,52.0,6.0,-100.00,West,271,4.0,9.0,15,-99.99,,,-99.99,,2013-01-03 18:53:00,
2013-01-03 11:02:00,51.0,4.0,-100.00,WSW,255,5.0,9.0,14,-99.99,,,-99.99,,2013-01-03 19:02:00,
2013-01-03 11:12:00,52.0,6.0,-100.00,West,261,5.0,10.0,15,-99.99,,,-99.99,,2013-01-03 19:12:00,
2013-01-03 11:55:00,53.0,7.0,-100.00,WNW,298,5.0,11.0,15,-99.99,,,-99.99,,2013-01-03 19:55:00,
2013-01-03 12:02:00,53.0,7.0,-100.00,WNW,286,6.0,10.0,15,-99.99,,,-99.99,,2013-01-03 20:02:00,
2013-01-03 12:12:00,53.0,4.0,-100.00,NNW,329,8.0,26.0,13,-99.99,,,-99.99,,2013-01-03 20:12:00,
2013-01-03 12:22:00,54.0,4.0,-100.00,NNW,340,6.0,21.0,13,-99.99,,,-99.99,,2013-01-03 20:22:00,
2013-01-03 12:33:00,55.0,7.0,-100.00,West,275,5.0,14.0,14,-99.99,,,-99.99,,2013-01-03 20:33:00,
2013-01-03 12:42:00,54.0,10.0,-100.00,SW,215,6.0,12.0,17,-99.99,,,-99.99,,2013-01-03 20:42:00,
2013-01-03 12:53:00,55.0,11.0,-100.00,SSW,197,5.0,9.0,17,-99.99,,,-99.99,,2013-01-03 20:53:00,
2013-01-03 13:02:00,55.0,10.0,-100.00,SW,216,3.0,8.0,16,-99.99,,,-99.99,,2013-01-03 21:02:00,
2013-01-03 13:12:00,55.0,8.0,-100.00,WSW,247,2.0,6.0,15,-99.99,,,-99.99,,2013-01-03 21:12:00,
2013-01-03 13:22:00,54.0,4.0,-100.00,NW,319,5.0,12.0,13,-99.99,,,-99.99,,2013-01-03 21:22:00,
2013-01-03 13:34:00,55.0,3.0,-100.00,NW,326,7.0,14.0,12,-99.99,,,-99.99,,2013-01-03 21:34:00,
2013-01-03 13:46:00,55.0,5.0,-100.00,WNW,295,7.0,23.0,13,-99.99,,,-99.99,,2013-01-03 21:46:00,
2013-01-03 13:52:00,56.0,6.0,-100.00,WSW,249,5.0,15.0,13,-99.99,,,-99.99,,2013-01-03 21:52:00,
2013-01-03 14:02:00,57.0,-1.0,-100.00,NNE,25,5.0,13.0,9,-99.99,,,-99.99,,2013-01-03 22:02:00,
2013-01-03 14:12:00,57.0,-1.0,-100.00,NNE,26,7.0,15.0,9,-99.99,,,-99.99,,2013-01-03 22:12:00,
2013-01-03 14:22:00,58.0,-3.0,-100.00,NNE,22,5.0,11.0,8,-99.99,,,-99.99,,2013-01-03 22:22:00,
2013-01-03 14:32:00,58.0,-3.0,-100.00,NNE,33,8.0,16.0,8,-99.99,,,-99.99,,2013-01-03 22:32:00,
2013-01-03 14:42:00,58.0,-3.0,-100.00,NNE,20,8.0,18.0,8,-99.99,,,-99.99,,2013-01-03 22:42:00,
2013-01-03 14:52:00,58.0,0.0,-100.00,NE,45,7.0,14.0,9,-99.99,,,-99.99,,2013-01-03 22:52:00,
2013-01-03 15:02:00,57.0,-1.0,-100.00,NNE,23,7.0,18.0,9,-99.99,,,-99.99,,2013-01-03 23:02:00,
2013-01-03 15:12:00,57.0,-1.0,-100.00,NNE,21,9.0,18.0,9,-99.99,,,-99.99,,2013-01-03 23:12:00,
2013-01-03 15:22:00,56.0,0.0,-100.00,NNE,33,9.0,18.0,10,-99.99,,,-99.99,,2013-01-03 23:22:00,
2013-01-03 15:32:00,56.0,0.0,-100.00,North,11,8.0,18.0,10,-99.99,,,-99.99,,2013-01-03 23:32:00,
2013-01-03 15:42:00,56.0,0.0,-100.00,WNW,303,5.0,15.0,10,-99.99,,,-99.99,,2013-01-03 23:42:00,
2013-01-03 15:52:00,56.0,0.0,-100.00,North,351,6.0,11.0,10,-99.99,,,-99.99,,2013-01-03 23:52:00,
2013-01-03 16:02:00,56.0,0.0,-100.00,WSW,257,5.0,9.0,10,-99.99,,,-99.99,,2013-01-04 00:02:00,
2013-01-03 16:12:00,55.0,3.0,-100.00,South,188,6.0,10.0,12,-99.99,,,-99.99,,2013-01-04 00:12:00,
2013-01-03 16:22:00,54.0,6.0,-100.00,SE,146,7.0,12.0,14,-99.99,,,-99.99,,2013-01-04 00:22:00,
2013-01-03 16:32:00,54.0,6.0,-100.00,South,179,4.0,8.0,14,-99.99,,,-99.99,,2013-01-04 00:32:00,
2013-01-03 16:42:00,53.0,4.0,-100.00,SE,130,3.0,7.0,13,-99.99,,,-99.99,,2013-01-04 00:42:00,
2013-01-03 16:52:00,52.0,4.0,-100.00,SE,132,3.0,4.0,14,-99.99,,,-99.99,,2013-01-04 00:52:00,
2013-01-03 17:02:00,52.0,6.0,-100.00,East,97,2.0,4.0,15,-99.99,,,-99.99,,2013-01-04 01:02:00,
2013-01-03 17:12:00,52.0,6.0,-100.00,SSE,157,1.0,4.0,15,-99.99,,,-99.99,,2013-01-04 01:12:00,
2013-01-03 17:22:00,50.0,6.0,-100.00,ESE,121,4.0,6.0,16,-99.99,,,-99.99,,2013-01-04 01:22:00,
2013-01-03 17:32:00,48.0,5.0,-100.00,SE,139,3.0,5.0,17,-99.99,,,-99.99,,2013-01-04 01:32:00,
2013-01-03 17:42:00,48.0,5.0,-100.00,South,171,4.0,8.0,17,-99.99,,,-99.99,,2013-01-04 01:42:00,
2013-01-03 17:52:00,46.0,8.0,-100.00,ESE,113,8.0,10.0,21,-99.99,,,-99.99,,2013-01-04 01:52:00,
2013-01-03 18:02:00,46.0,7.0,-100.00,SE,125,4.0,7.0,20,-99.99,,,-99.99,,2013-01-04 02:02:00,
2013-01-03 18:12:00,47.0,6.0,-100.00,SE,131,5.0,10.0,18,-99.99,,,-99.99,,2013-01-04 02:12:00,
2013-01-03 18:22:00,45.0,6.0,-100.00,ESE,113,4.0,7.0,20,-99.99,,,-99.99,,2013-01-04 02:22:00,
2013-01-03 18:32:00,45.0,5.0,-100.00,ESE,108,6.0,10.0,19,-99.99,,,-99.99,,2013-01-04 02:32:00,
2013-01-03 18:42:00,45.0,5.0,-100.00,ESE,108,6.0,10.0,19,-99.99,,,-99.99,,2013-01-04 02:42:00,
2013-01-03 18:52:00,44.0,4.0,-100.00,ESE,113,8.0,11.0,19,-99.99,,,-99.99,,2013-01-04 02:52:00,
2013-01-03 19:02:00,45.0,4.0,-100.00,ESE,115,6.0,10.0,18,-99.99,,,-99.99,,2013-01-04 03:02:00,
2013-01-03 19:12:00,44.0,3.0,-100.00,ESE,113,8.0,10.0,18,-99.99,,,-99.99,,2013-01-04 03:12:00,
2013-01-03 19:22:00,44.0,4.0,-100.00,ESE,118,6.0,9.0,19,-99.99,,,-99.99,,2013-01-04 03:22:00,
2013-01-03 19:32:00,44.0,4.0,-100.00,ESE,116,7.0,10.0,19,-99.99,,,-99.99,,2013-01-04 03:32:00,
2013-01-03 19:42:00,44.0,4.0,-100.00,ESE,116,7.0,10.0,19,-99.99,,,-99.99,,2013-01-04 03:42:00,
2013-01-03 19:52:00,43.0,5.0,-100.00,ESE,110,8.0,10.0,20,-99.99,,,-99.99,,2013-01-04 03:52:00,
2013-01-03 20:02:00,45.0,3.0,-100.00,ESE,122,6.0,9.0,17,-99.99,,,-99.99,,2013-01-04 04:02:00,
2013-01-03 20:12:00,46.0,0.0,-100.00,SE,128,4.0,7.0,14,-99.99,,,-99.99,,2013-01-04 04:12:00,
2013-01-03 20:22:00,46.0,1.0,-100.00,ESE,122,8.0,10.0,15,-99.99,,,-99.99,,2013-01-04 04:22:00,
2013-01-03 20:32:00,44.0,1.0,-100.00,ESE,108,6.0,9.0,16,-99.99,,,-99.99,,2013-01-04 04:32:00,
2013-01-03 20:42:00,44.0,1.0,-100.00,ESE,108,6.0,9.0,16,-99.99,,,-99.99,,2013-01-04 04:42:00,
2013-01-03 20:52:00,43.0,2.0,-100.00,ESE,110,7.0,9.0,18,-99.99,,,-99.99,,2013-01-04 04:52:00,
2013-01-03 21:03:00,43.0,2.0,-100.00,ESE,110,7.0,9.0,18,-99.99,,,-99.99,,2013-01-04 05:03:00,
2013-01-03 21:12:00,44.0,2.0,-100.00,ESE,111,7.0,10.0,17,-99.99,,,-99.99,,2013-01-04 05:12:00,
2013-01-03 21:22:00,44.0,2.0,-100.00,ESE,109,7.0,9.0,17,-99.99,,,-99.99,,2013-01-04 05:22:00,
2013-01-03 21:33:00,42.0,4.0,-100.00,ESE,111,8.0,10.0,20,-99.99,,,-99.99,,2013-01-04 05:33:00,
2013-01-03 21:42:00,42.0,4.0,-100.00,ESE,111,8.0,10.0,20,-99.99,,,-99.99,,2013-01-04 05:42:00,
2013-01-03 21:52:00,43.0,4.0,-100.00,ESE,120,8.0,10.0,19,-99.99,,,-99.99,,2013-01-04 05:52:00,
2013-01-03 22:02:00,43.0,4.0,-100.00,ESE,110,6.0,9.0,19,-99.99,,,-99.99,,2013-01-04 06:02:00,
2013-01-03 22:12:00,43.0,4.0,-100.00,ESE,123,7.0,9.0,19,-99.99,,,-99.99,,2013-01-04 06:12:00,
2013-01-03 22:22:00,43.0,2.0,-100.00,ESE,113,7.0,8.0,18,-99.99,,,-99.99,,2013-01-04 06:22:00,
2013-01-03 22:32:00,42.0,4.0,-100.00,ESE,113,7.0,9.0,20,-99.99,,,-99.99,,2013-01-04 06:32:00,
2013-01-03 22:42:00,41.0,5.0,-100.00,ESE,109,7.0,9.0,22,-99.99,,,-99.99,,2013-01-04 06:42:00,
2013-01-03 22:52:00,40.0,5.0,-100.00,ESE,108,7.0,10.0,23,-99.99,,,-99.99,,2013-01-04 06:52:00,
2013-01-03 23:02:00,40.0,7.0,-100.00,ESE,104,8.0,9.0,25,-99.99,,,-99.99,,2013-01-04 07:02:00,
2013-01-03 23:12:00,42.0,6.0,-100.00,ESE,110,8.0,10.0,22,-99.99,,,-99.99,,2013-01-04 07:12:00,
2013-01-03 23:22:00,43.0,6.0,-100.00,ESE,113,7.0,9.0,21,-99.99,,,-99.99,,2013-01-04 07:22:00,
2013-01-03 23:32:00,42.0,6.0,-100.00,ESE,115,7.0,9.0,22,-99.99,,,-99.99,,2013-01-04 07:32:00,
2013-01-03 23:42:00,45.0,3.0,-100.00,SSE,147,5.0,9.0,17,-99.99,,,-99.99,,2013-01-04 07:42:00,
2013-01-03 23:52:00,43.0,6.0,-100.00,ESE,110,5.0,8.0,21,-99.99,,,-99.99,,2013-01-04 07:52:00,